User: anonymous   Login
Location: Arlington
(40.6323°N, 74.1651°W)
Time: 11:59:30
(UTC+00:00)
Language:

Cosmos 2346 Rocket - Orbit

View from above orbital plane
View from above orbital plane
View from above satellite
View from above satellite

Ground track
Ground track

The orbit data is extracted from the following two-line orbital elements,

1 24955U 97052C   20020.81803680  .00000007  00000-0 -80419-5 0  9991
2 24955  82.9212 279.8099 0029503 343.7651  16.2560 13.81548329125588
Epoch (UTC): 20 January 2020 19:37:58
Eccentricity: 0.0029503
inclination: 82.9212°
perigee height: 937 km
apogee height: 980 km
right ascension of ascending node: 279.8099°
argument of perigee: 343.7651°
revolutions per day: 13.81548329
mean anomaly at epoch: 16.2560°
orbit number at epoch: 12558

The dashed part of the orbit path shows where the satellite is in the earth's shadow,  

DLR